Regional Weather Roundup
Issued by NWS Little Rock, AR

Home | Current Version | Previous Version | Text Only | Print | Product List | Glossary Off
Versions: 1 2 3 4 5 6 7 8 9 10 11 12 13 14 15 16 17 18 19 20 21 22 23 24 25 26 27 28 29 30 31 32 33 34 35 36 37 38 39 40 41 42 43 44 45 46 47 48 49

000
ASUS44 KLZK 191005
RWRLZK

WEATHER ROUNDUP FOR ARKANSAS
NATIONAL WEATHER SERVICE LITTLE ROCK AR
500 AM CDT FRI SEP 19 2014

NOTE: "FAIR" INDICATES FEW OR NO CLOUDS BELOW 12,000 FEET WITH NO
SIGNIFICANT WEATHER AND/OR OBSTRUCTIONS TO VISIBILITY.

ARZ001-003-010-029-191100-
NORTHWEST ARKANSAS

CITY           SKY/WX    TMP DP  RH WIND       PRES   REMARKS
FAYETTEVILLE   MOCLDY    61  61 100 CALM      30.01S FOG
FORT SMITH     CLOUDY    69  64  84 E7        29.98S
HARRISON       FOG       62  62 100 SE3       30.04R VSB 1/4
BENTONVILLE    CLEAR     63  61  94 E5        30.02S
ROGERS         CLEAR     64  61  90 E6        30.03S
SILOAM SPGS    CLEAR     63  57  82 E3        30.02S
HIGHFILL       CLEAR     63  62  97 E3        30.01S
$$

ARZ004-005-016-191100-
NORTH CENTRAL ARKANSAS

CITY           SKY/WX    TMP DP  RH WIND       PRES   REMARKS
BATESVILLE     CLOUDY    64  63  94 CALM      30.01R
FLIPPIN        CLOUDY    63  57  82 CALM      30.03S
MTN HOME       CLOUDY    61  60  97 CALM      30.02S FOG
$$

ARZ040-041-191100-
WEST CENTRAL ARKANSAS

CITY           SKY/WX    TMP DP  RH WIND       PRES   REMARKS
MENA           CLOUDY    72  70  94 CALM      29.99R
MOUNT IDA      CLOUDY    69  65  86 VRB5      29.97R
$$

ARZ009-017-025-026-028-191100-
NORTHEAST ARKANSAS

CITY           SKY/WX    TMP DP  RH WIND       PRES   REMARKS
CORNING          N/A     59  59 100 NE6       30.02S FOG
JONESBORO      CLOUDY    65  61  87 NE7       30.00S
NEWPORT        CLOUDY    66  63  90 NE5       30.01S
WALNUT RIDGE   CLOUDY    63  59  88 NE6       30.01R
BLYTHEVILLE    CLEAR     61  60  97 NE3       30.01R
$$

ARZ022-023-033-042-044-191100-
CENTRAL ARKANSAS

CITY           SKY/WX    TMP DP  RH WIND       PRES   REMARKS
LITTLE ROCK    PTCLDY    67  62  84 E5        29.99R
N LITTLE ROCK    N/A     65  64  96 NE7       29.99R
JACKSONVILLE   CLOUDY    65  63  94 NE1       29.99R
SEARCY         PTCLDY    65  62  90 N5        30.00S
HOT SPRINGS    CLEAR     67  64  90 CALM      29.98R
RUSSELLVILLE   CLOUDY    66  64  93 CALM      29.99S
CLINTON        MOCLDY    66  64  94 CALM      30.01S FOG
$$

ARZ036-191100-
EAST ARKANSAS

CITY           SKY/WX    TMP DP  RH WIND       PRES   REMARKS
WEST MEMPHIS   CLEAR     65  65 100 CALM      29.98R FOG
$$

ARZ050-053-066-070-073-191100-
SOUTHWEST ARKANSAS

CITY           SKY/WX    TMP DP  RH WIND       PRES   REMARKS
ARKADELPHIA    FAIR      68  67  96 NE5       29.97R FOG
CAMDEN         CLOUDY    68  66  94 E3        29.95S FOG
TEXARKANA      CLOUDY    70  70 100 E7        29.95R FOG
EL DORADO      CLOUDY    68  68 100 NE5       29.95R FOG
DE QUEEN       PTCLDY    68  67  96 CALM      29.94R FOG
$$

ARZ056-057-069-191100-
SOUTHEAST ARKANSAS

CITY           SKY/WX    TMP DP  RH WIND       PRES   REMARKS
PINE BLUFF     CLOUDY    67  65  93 NE5       29.98R
STUTTGART      MOCLDY    66  63  88 E5        29.99R
MONTICELLO     FOG       69  67  93 NE5       29.96S VSB 1/4

$$




USA.gov is the U.S. government's official web portal to all federal, state and local government web resources and services.